Regional Weather Roundup
Issued by NWS

Home | Current Version | Previous Version | Text Only | Print | Product List | Glossary Off
Versions: 1 2 3 4 5 6 7 8 9 10 11 12 13 14 15 16 17 18 19 20 21 22 23 24 25 26 27 28 29 30 31 32 33 34 35 36 37 38 39 40 41 42 43 44 45 46 47 48 49 50

000
ASUS43 KLSX 280607
RWRMO

WEATHER SUMMARY FOR MISSOURI
NATIONAL WEATHER SERVICE SPRINGFIELD MO
100 AM CDT TUE JUL 28 2015

NOTE: "FAIR" INDICATES FEW OR NO CLOUDS BELOW 12,000 FEET WITH NO
       SIGNIFICANT WEATHER AND/OR OBSTRUCTIONS TO VISIBILITY.
       CURRENT SKY AND/OR WEATHER CONDITIONS ARE NOT AVAILABLE FOR
       CHILLICOTHE AND FARMINGTON.

MOZ001>031-035>038-043-044-053-054-280700-
...NORTHERN AND WESTERN MISSOURI...

CITY           SKY/WX    TMP DP  RH WIND       PRES   REMARKS
KANSAS CTY INT CLEAR     78  73  84 SE12      29.90S
6HR MIN TEMP:  78; 6HR MAX TEMP:  90;

KANSAS C DTWN  CLEAR     80  75  84 E8        29.89R
6HR MIN TEMP:  80; 6HR MAX TEMP:  93;

LEE`S SUMMIT   CLEAR     80  75  84 SE5       29.92S
6HR MIN TEMP:  79; 6HR MAX TEMP:  92;

ST JOSEPH      CLEAR     76  73  91 SE7       29.88F
6HR MIN TEMP:  76; 6HR MAX TEMP:  89;

CHILLICOTHE      N/A     76  70  82 VRB5      29.93S
6HR MIN TEMP:  76; 6HR MAX TEMP:  81;

KIRKSVILLE     CLEAR     73  69  87 S6        29.95S
6HR MIN TEMP:  72; 6HR MAX TEMP:  77; 6HR PCP: TRACE;


$$
MOZ066>068-077>081-088>096-101>105-280700-
...SOUTHWEST MISSOURI...

CITY           SKY/WX    TMP DP  RH WIND       PRES   REMARKS
SPRINGFIELD    CLEAR     81  75  82 S7        29.96S
6HR MIN TEMP:  81; 6HR MAX TEMP:  90;

JOPLIN         CLEAR     82  75  79 SE6       29.93S
6HR MIN TEMP:  80; 6HR MAX TEMP:  92;


$$
MOZ032>034-039>042-045>050-055>058-069>072-280700-
...CENTRAL MISSOURI...

CITY           SKY/WX    TMP DP  RH WIND       PRES   REMARKS
COLUMBIA       CLEAR     74  71  91 SE7       29.95F
6HR MIN TEMP:  74; 6HR MAX TEMP:  91; 6HR PCP: TRACE;

JEFFERSON CITY CLEAR     75  71  87 SE5       29.94S
6HR MIN TEMP:  75; 6HR MAX TEMP:  93;

ROLLA          MOCLDY    74  71  91 SE9       29.96S
6HR MIN TEMP:  73; 6HR MAX TEMP:  90; 6HR PCP:  0.04;

SEDALIA        CLEAR     78  72  81 SE10      29.95R
6HR MIN TEMP:  78; 6HR MAX TEMP:  92;

WHITEMAN AFB   CLEAR     78  74  86 SE7       29.91S
WARRENSBURG    CLEAR     77  72  83 E5        29.91S
OSAGE BEACH    PTCLDY    81  75  83 E3        29.95S

$$
MOZ051-052-059>065-280700-
...EAST CENTRAL MISSOURI...

CITY           SKY/WX    TMP DP  RH WIND       PRES   REMARKS
ST LOUIS INTL  MOCLDY    78  69  73 S5        29.96S
6HR MIN TEMP:  78; 6HR MAX TEMP:  82; 6HR PCP: TRACE;

SPIRIT OF STL  MOCLDY    76  73  91 CALM      29.94S
6HR MIN TEMP:  76; 6HR MAX TEMP:  82; 6HR PCP: TRACE;

ST CHARLES     MOCLDY    74  73  97 CALM      29.95R
6HR MIN TEMP:  74; 6HR MAX TEMP:  79; 6HR PCP:  0.23;


$$
MOZ072>076-082>087-097>100-106>115-280700-
...SOUTH CENTRAL AND SOUTHEAST MISSOURI...

CITY           SKY/WX    TMP DP  RH WIND       PRES   REMARKS
CAPE GIRARDEAU CLOUDY    76  74  93 CALM      29.95S
6HR MIN TEMP:  76; 6HR MAX TEMP:  83; 6HR PCP: TRACE;

FARMINGTON     MOCLDY    75  73  94 CALM      30.02F
6HR MIN TEMP:  75; 6HR MAX TEMP:  84; 6HR PCP:  0.01;

POPLAR BLUFF   PTCLDY    79  78  97 CALM      29.93F
6HR MIN TEMP:  79; 6HR MAX TEMP:  89;

WEST PLAINS    CLEAR     77  72  84 S3        30.00R
6HR MIN TEMP:  76; 6HR MAX TEMP:  87;


$$


USA.gov is the U.S. government's official web portal to all federal, state and local government web resources and services.